Location: El Azufral
(10.3513°N, 67.1528°W)
Time: 10:52:15
(UTC+00:00)

Delta 202 - Pass Details

Date: 13 June 2024
Orbit: 781 x 2712 km, 18.5° (Epoch: 19 July)

Event Time Altitude Azimuth Distance (km) Brightness Sun altitude
Rises 23:03:05 0° 289° (WNW) 3,848 9.9 -3.6°
Reaches altitude 10° 23:06:11 10° 294° (WNW) 2,682 8.3 -4.3°
Maximum altitude 23:12:04 49° 9° (N) 1,038 4.4 -5.6°
Drops below altitude 10° 23:17:09 10° 84° (E) 2,317 5.5 -6.8°
Enters shadow 23:18:22 - 88° (E) 2,782 5.8 -7.0°
